Home > Weather > Ontario > Past weeks

Flag for U.S.A. Weather for the Past 2 Weeks in Ontario, California, U.S.A.

Now
85 °F

Scattered clouds.


Feels Like: 82 °F
Forecast: 53 / 85 °F
Wind: No wind

Location: Ontario International Airport

Current Time: Feb 12, 2016 at 3:12:51 PM

Latest Report: Feb 12, 2016 at 1:53 PM


Visibility: 10 mi

Pressure: 30.00 "Hg

Humidity: 9%

Dew point: 20 °F

Location of OntarioLocation

Historic Weather in Ontario — Graph

°F

Ontario Temperature Yesterday

Maximum temperature yesterday: 86 °F (at 2:53 PM)
Minimum temperature yesterday: 50 °F (at 5:53 AM)
Average temperature yesterday: 67 °F

High & Low Weather Summary for the Past Weeks

 TemperatureHumidityPressure
High88 °F (Feb 10, 2:53 PM)93% (Jan 30, 9:53 PM)30.37 "Hg (Jan 30, 9:53 PM)
Low34 °F (Feb 2, 1:53 AM)7% (Feb 7, 2:53 PM)29.59 "Hg (Jan 31, 1:53 PM)
Average59 °F41%30.11 "Hg
* Reported Jan 28 12:53 PM — Feb 12 12:53 PM, Ontario, Weather by CustomWeather, © 2016

Note: Actual official high and low records may vary slightly from our data, if they occured in-between our weather recording intervals... More about our weather records

Advertising

Ontario Weather History for the Previous 24 Hours

 ConditionsComfort  
Time TempWeatherWind HumidityBarometerVisibility
12:53 PM
Fri, Feb 12
84 °FPartly sunny.3 mph10%30.03 "Hg10 mi
11:53 AM81 °FScattered clouds.5 mph14%30.07 "Hg10 mi
10:53 AM76 °FScattered clouds.3 mph16%30.09 "Hg10 mi
9:53 AM72 °FScattered clouds.No wind20%30.11 "Hg10 mi
8:53 AM67 °FPartly sunny.No wind27%30.11 "Hg10 mi
7:53 AM59 °FPartly sunny.3 mph44%30.11 "Hg10 mi
6:53 AM52 °FPassing clouds.3 mph49%30.10 "Hg10 mi
5:53 AM54 °FClear.5 mph47%30.09 "Hg10 mi
4:53 AM52 °FClear.3 mph49%30.07 "Hg10 mi
3:53 AM56 °FClear.3 mph44%30.07 "Hg10 mi
2:53 AM58 °FClear.No wind43%30.08 "Hg10 mi
1:53 AM58 °FClear.3 mph46%30.09 "Hg10 mi
12:53 AM58 °FClear.3 mph47%30.10 "Hg10 mi
11:53 PM
Thu, Feb 11
60 °FClear.No wind44%30.10 "Hg10 mi
10:53 PM65 °FClear.No wind36%30.10 "Hg10 mi
9:53 PM64 °FClear.3 mph40%30.11 "Hg10 mi
8:53 PM65 °FClear.No wind37%30.11 "Hg10 mi
7:53 PM70 °FClear.6 mph29%30.09 "Hg10 mi
6:53 PM70 °FPassing clouds.5 mph25%30.09 "Hg10 mi
5:53 PM75 °FPassing clouds.7 mph19%30.07 "Hg10 mi
4:53 PM81 °FPassing clouds.10 mph17%30.05 "Hg10 mi
3:53 PM84 °FPassing clouds.8 mph13%30.03 "Hg10 mi
Weather by CustomWeather, © 2016

See weather overviewHow to use our weather pages